Date String (YYYY-MM-DD hh:mm:ss) UTC,Instrument flags,absolute air pressure of the measurement (hPa),sample flow rate (lpm),inlet stack bypass flow (lpm),air temperature of the measurement (°C),ambient temperature measured by the external sensor (°C),aerosol sample conditioner tube jacket temperature (°C),OPC LED temperature (°C),internal box temperature (°C),relative humidity of the measurement (%),span deviation,mass concentration of particles derived from Lorenz-Mie calculation of OPC scattering (μg/m³),mass concentration of particles derived from Lorenz-Mie calculation of OPC scattering (μg/m³),mass concentration of particles derived from Lorenz-Mie calculation of OPC scattering (μg/m³)
DateTimeUTC,F1_M11,P_M11,Q1_M11,Q2_M11,T1_M11,T2_M11,T3_M11,T4_M11,T5_M11,U1_M11,ZSPAN_M11,X0_M11,X2_M11,X1_M11
2024-03-09 00:00:00,SystemResetWarning,0832.9,5.01,000.00,018.7,018.7,000.0,027.1,020.7,18.7,0000.0,0008.19,0005.38,0005.22
2024-03-09 00:01:00,SystemResetWarning,0832.9,5.00,000.00,018.6,018.4,000.0,027.1,020.5,19.1,0000.0,0008.18,0005.39,0005.24
2024-03-09 00:02:00,SystemResetWarning,0832.9,5.00,000.00,018.6,018.2,000.0,027.1,020.4,19.0,0000.0,0008.22,0005.41,0005.24
2024-03-09 00:03:00,SystemResetWarning,0833.0,5.00,000.00,018.6,018.0,000.0,027.0,020.2,19.0,0000.0,0008.26,0005.42,0005.25
2024-03-09 00:04:00,SystemResetWarning,0833.0,5.02,000.00,018.5,017.8,000.0,027.0,020.1,19.2,0000.0,0008.25,0005.42,0005.24
2024-03-09 00:05:00,SystemResetWarning,0833.0,5.00,000.00,018.4,017.6,000.0,027.0,020.1,19.2,0000.0,0008.22,0005.40,0005.23
2024-03-09 00:06:00,SystemResetWarning,0832.9,4.98,000.00,018.4,017.5,000.0,027.0,020.0,19.2,0000.0,0008.22,0005.39,0005.22
2024-03-09 00:07:00,SystemResetWarning,0832.9,5.00,000.00,018.3,017.4,000.0,027.0,020.0,19.2,0000.0,0008.27,0005.36,0005.19
2024-03-09 00:08:00,SystemResetWarning,0833.0,5.00,000.00,018.3,017.3,000.0,027.1,020.0,19.2,0000.0,0008.26,0005.34,0005.17
2024-03-09 00:09:00,SystemResetWarning,0833.1,5.01,000.00,018.3,017.2,000.0,027.1,020.0,19.2,0000.0,0008.14,0005.29,0005.14
2024-03-09 00:10:00,SystemResetWarning,0833.1,5.00,000.00,018.3,017.1,000.0,027.1,020.0,19.3,0000.0,0007.59,0005.25,0005.12
2024-03-09 00:11:00,SystemResetWarning,0833.0,5.01,000.00,018.3,017.1,000.0,027.1,020.0,19.3,0000.0,0007.09,0005.24,0005.11
2024-03-09 00:12:00,SystemResetWarning,0833.0,4.99,000.00,018.2,017.0,000.0,027.1,020.0,19.4,0000.0,0007.01,0005.20,0005.09
2024-03-09 00:13:00,SystemResetWarning,0833.1,4.99,000.00,018.2,017.0,000.0,027.1,020.0,19.3,0000.0,0006.99,0005.20,0005.08
2024-03-09 00:14:00,SystemResetWarning,0833.2,5.01,000.00,018.3,017.5,000.0,027.1,020.3,19.3,0000.0,0006.91,0005.18,0005.07
2024-03-09 00:15:00,SystemResetWarning,0833.0,5.00,000.00,018.5,018.6,000.0,027.2,020.8,18.9,0000.0,0006.84,0005.17,0005.06
2024-03-09 00:16:00,SystemResetWarning,0833.3,4.99,000.00,018.7,018.9,000.0,027.2,021.0,18.7,0000.0,0006.83,0005.16,0005.05
2024-03-09 00:17:00,SystemResetWarning,0833.0,5.01,000.00,018.7,018.7,000.0,027.2,020.8,18.6,0000.0,0006.82,0005.15,0005.04
2024-03-09 00:18:00,SystemResetWarning,0833.1,5.00,000.00,018.7,018.5,000.0,027.1,020.6,18.6,0000.0,0006.84,0005.17,0005.04
2024-03-09 00:19:00,SystemResetWarning,0833.3,5.00,000.00,018.6,018.2,000.0,027.1,020.4,18.7,0000.0,0006.88,0005.18,0005.02
2024-03-09 00:20:00,SystemResetWarning,0833.1,4.99,000.00,018.6,018.0,000.0,027.1,020.3,18.8,0000.0,0007.07,0005.20,0005.03
2024-03-09 00:21:00,SystemResetWarning,0833.5,5.00,000.00,018.5,017.8,000.0,027.1,020.2,18.9,0000.0,0007.09,0005.21,0005.04
2024-03-09 00:22:00,SystemResetWarning,0833.3,5.01,000.00,018.5,017.7,000.0,027.1,020.1,18.9,0000.0,0007.02,0005.20,0005.02
2024-03-09 00:23:00,SystemResetWarning,0833.5,5.01,000.00,018.4,017.6,000.0,027.0,020.0,18.9,0000.0,0007.03,0005.20,0005.01
2024-03-09 00:24:00,SystemResetWarning,0833.1,4.99,000.00,018.4,017.5,000.0,027.0,020.0,19.0,0000.0,0006.96,0005.17,0005.00
2024-03-09 00:25:00,SystemResetWarning,0833.0,5.00,000.00,018.3,017.4,000.0,027.1,020.0,19.0,0000.0,0006.87,0005.15,0004.99
2024-03-09 00:26:00,SystemResetWarning,0833.0,5.00,000.00,018.3,017.3,000.0,027.1,020.0,19.1,0000.0,0006.91,0005.15,0004.99
2024-03-09 00:27:00,SystemResetWarning,0833.0,5.00,000.00,018.3,017.2,000.0,027.1,020.0,19.1,0000.0,0006.95,0005.15,0004.99
2024-03-09 00:28:00,SystemResetWarning,0833.1,5.00,000.00,018.3,017.1,000.0,027.1,020.0,19.1,0000.0,0006.95,0005.15,0004.98
2024-03-09 00:29:00,SystemResetWarning,0833.0,5.01,000.00,018.3,017.1,000.0,027.1,020.0,19.1,0000.0,0006.87,0005.12,0004.97
2024-03-09 00:30:00,SystemResetWarning,0833.0,5.00,000.00,018.2,017.0,000.0,027.1,020.0,19.1,0000.0,0006.76,0005.10,0004.97
2024-03-09 00:31:00,SystemResetWarning,0833.1,5.01,000.00,018.2,017.0,000.0,027.1,020.0,19.2,0000.0,0006.59,0005.07,0004.95
2024-03-09 00:32:00,SystemResetWarning,0833.1,5.00,000.00,018.2,017.1,000.0,027.1,020.0,19.2,0000.0,0006.51,0005.06,0004.95
2024-03-09 00:33:00,SystemResetWarning,0833.2,5.01,000.00,018.3,017.9,000.0,027.1,020.4,19.1,0000.0,0006.51,0005.04,0004.92
2024-03-09 00:34:00,SystemResetWarning,0833.2,5.00,000.00,018.6,018.8,000.0,027.2,020.9,18.9,0000.0,0006.44,0005.02,0004.91
2024-03-09 00:35:00,SystemResetWarning,0833.2,4.98,000.00,018.7,018.9,000.0,027.2,020.9,18.7,0000.0,0006.38,0004.99,0004.89
2024-03-09 00:36:00,SystemResetWarning,0833.2,5.00,000.00,018.7,018.7,000.0,027.1,020.7,18.7,0000.0,0006.36,0004.98,0004.88
2024-03-09 00:37:00,SystemResetWarning,0833.2,5.01,000.00,018.7,018.5,000.0,027.1,020.6,18.7,0000.0,0006.42,0004.97,0004.85
2024-03-09 00:38:00,SystemResetWarning,0833.2,5.00,000.00,018.7,018.3,000.0,027.1,020.4,18.8,0000.0,0006.35,0004.96,0004.84
2024-03-09 00:39:00,SystemResetWarning,0833.2,5.00,000.00,018.6,018.1,000.0,027.1,020.3,18.8,0000.0,0006.35,0004.96,0004.84
2024-03-09 00:40:00,SystemResetWarning,0833.2,5.01,000.00,018.6,017.9,000.0,027.1,020.2,18.8,0000.0,0006.30,0004.94,0004.84
2024-03-09 00:41:00,SystemResetWarning,0833.2,5.01,000.00,018.5,017.8,000.0,027.1,020.1,18.9,0000.0,0006.27,0004.94,0004.84
2024-03-09 00:42:00,SystemResetWarning,0833.2,5.00,000.00,018.5,017.7,000.0,027.1,020.1,18.9,0000.0,0006.36,0004.96,0004.84
2024-03-09 00:43:00,SystemResetWarning,0833.2,4.98,000.00,018.4,017.6,000.0,027.0,020.0,19.0,0000.0,0006.35,0004.95,0004.82
2024-03-09 00:44:00,SystemResetWarning,0833.2,5.00,000.00,018.4,017.5,000.0,027.0,020.0,19.0,0000.0,0006.30,0004.94,0004.82
2024-03-09 00:45:00,SystemResetWarning,0833.2,5.00,000.00,018.3,017.4,000.0,027.1,020.0,19.0,0000.0,0006.38,0004.96,0004.83
2024-03-09 00:46:00,SystemResetWarning,0833.2,5.02,000.00,018.3,017.3,000.0,027.1,020.0,19.1,0000.0,0006.41,0004.97,0004.85
2024-03-09 00:47:00,SystemResetWarning,0833.2,4.99,000.00,018.3,017.3,000.0,027.1,020.0,19.1,0000.0,0006.43,0004.98,0004.86
2024-03-09 00:48:00,SystemResetWarning,0833.2,4.99,000.00,018.3,017.2,000.0,027.0,020.0,19.1,0000.0,0006.35,0004.98,0004.87
2024-03-09 00:49:00,SystemResetWarning,0833.2,5.00,000.00,018.3,017.2,000.0,027.0,020.0,19.0,0000.0,0006.29,0004.98,0004.88
2024-03-09 00:50:00,SystemResetWarning,0833.2,5.00,000.00,018.3,017.1,000.0,027.0,020.0,19.0,0000.0,0006.33,0004.98,0004.88
2024-03-09 00:51:00,SystemResetWarning,0833.2,5.00,000.00,018.2,017.1,000.0,027.0,020.0,19.0,0000.0,0006.32,0004.99,0004.89
2024-03-09 00:52:00,SystemResetWarning,0833.2,5.00,000.00,018.2,017.1,000.0,027.0,020.0,19.0,0000.0,0006.54,0005.00,0004.89
2024-03-09 00:53:00,SystemResetWarning,0833.2,5.01,000.00,018.2,017.1,000.0,027.0,020.0,19.0,0000.0,0006.69,0005.01,0004.91
2024-03-09 00:54:00,SystemResetWarning,0833.2,5.00,000.00,018.2,017.1,000.0,027.0,020.0,19.0,0000.0,0006.67,0005.01,0004.92
2024-03-09 00:55:00,SystemResetWarning,0833.3,5.00,000.00,018.2,017.0,000.0,027.0,020.0,19.0,0000.0,0006.66,0005.01,0004.94
2024-03-09 00:56:00,SystemResetWarning,0833.3,5.00,000.00,018.2,017.5,000.0,027.1,020.2,19.0,0000.0,0006.66,0005.02,0004.94
2024-03-09 00:57:00,SystemResetWarning,0833.3,5.00,000.00,018.4,018.5,000.0,027.2,020.7,18.8,0000.0,0006.71,0005.03,0004.95
2024-03-09 00:58:00,SystemResetWarning,0833.4,4.99,000.00,018.7,019.0,000.0,027.2,021.0,18.5,0000.0,0006.71,0005.03,0004.95
2024-03-09 00:59:00,SystemResetWarning,0833.3,4.99,000.00,018.7,018.9,000.0,027.1,020.9,18.5,0000.0,0006.75,0005.05,0004.96
